Weather in Malaya Khmelevaya

Russia / Tula Oblast     53°12′20″N   38°00′35″E
temp.,
°C
wind,
m/s
gust,
m/s
humid.,
%
clouds,
%
prec.,
mm/h
press.,
hPa
HPBL,
m
20 june, sun
sun2000:00+17se22880 0.0 102411
03:00+15se12890 0.0 102511
06:00+16ese23870 0.0 102494
09:00+21se34700 0.0 1024467
12:00+24se45610 0.0 1023936
15:00+25se44575 0.0 10221141
18:00+24se356964 0.0 1021604
21:00+19se2283100 0.0 102213
21 june, mon
mon2100:00+17ese338896 0.0 102128
03:00+16e3390100 0.0 102138
06:00+18ese258990 0.0 1022147
09:00+23ese467296 0.0 1022456
12:00+26ese5662100 0.0 1021848
15:00+27ese566092 0.0 1020941
18:00+26se477384 0.0 1020506
21:00+21ese3485100 0.0 102062
22 june, tue
tue2200:00+19se379161 0.0 1021115
03:00+18ese349233 0.0 102155
06:00+19ese37905 0.0 1021189
09:00+24ese46725 0.0 1021416
12:00+27ese56600 0.0 1021787
15:00+28ese4557100 0.0 1021996
18:00+27ese367097 0.0 1020316
21:00+22ese33822 0.0 102136
23 june, wed
wed2300:00+20ese33840 0.0 102132
03:00+19e33845 0.0 102135
06:00+20e36855 0.0 1021124
09:00+25e45715 0.0 1021369
12:00+28e45595 0.0 1021940
15:00+29ese445426 0.0 10201248
18:00+29e346988 0.0 1020365
21:00+23ese228361 0.0 102012
24 june, thu
thu2400:00+21e11855 0.0 102011
03:00+20ene22877 0.0 102111
06:00+21e238433 0.0 102170
09:00+26e236923 0.0 1021353
12:00+29e225946 0.0 10211003
15:00+30e115193 0.0 10201460
18:00+30sse016285 0.0 10201603
21:00+25ssw117013 0.0 102011